• In Czech Republic
  • List of Countries
  • For 7 days
  • Water Temperature
  • Satellite Maps
  • Weather Map
  • Weather Widgets
  • user-avatar
    Login

    Hourly Weather Wiktoria

    Today, 23 July, Sunday

    Time Temperature Precipitation Wind Pressure Humidity
    00:00 +7°C° 0 mm 5 mps 750 mmHg 52%
    01:00 +6°C° 0 mm 4 mps 750 mmHg 54%
    02:00 +6°C° 0 mm 4 mps 750 mmHg 55%
    03:00 +5°C° 0 mm 4 mps 750 mmHg 57%
    04:00 +6°C° 0 mm 5 mps 749 mmHg 52%
    05:00 +5°C° 0 mm 5 mps 749 mmHg 54%
    06:00 +5°C° 0 mm 4 mps 749 mmHg 57%
    07:00 +4°C° 0 mm 3 mps 749 mmHg 60%
    08:00 +5°C° 0 mm 3 mps 749 mmHg 60%
    09:00 +8°C° 0 mm 3 mps 749 mmHg 61%
    10:00 +9°C° 0 mm 3 mps 749 mmHg 62%
    11:00 +11°C° 0 mm 3 mps 749 mmHg 64%
    12:00 +12°C° 0 mm 3 mps 749 mmHg 66%
    13:00 +14°C° 0 mm 4 mps 748 mmHg 67%
    14:00 +14°C° 0.4 mm 3 mps 748 mmHg 72%
    15:00 +13°C° 0.4 mm 3 mps 748 mmHg 77%
    16:00 +13°C° 0.4 mm 3 mps 748 mmHg 82%
    17:00 +12°C° 0.6 mm 3 mps 748 mmHg 85%
    18:00 +11°C° 0.6 mm 3 mps 749 mmHg 89%
    19:00 +9°C° 0.6 mm 3 mps 749 mmHg 93%
    20:00 +8°C° 0 mm 3 mps 750 mmHg 94%
    21:00 +8°C° 0 mm 2 mps 750 mmHg 95%
    22:00 +7°C° 0 mm 2 mps 750 mmHg 96%
    23:00 +6°C° 0 mm 2 mps 751 mmHg 96%

    Tomorrow, 24 July, Monday

    Time Temperature Precipitation Wind Pressure Humidity
    00:00 +7°C° 0 mm 1 mps 751 mmHg 95%
    01:00 +7°C° 0 mm 1 mps 751 mmHg 95%
    02:00 +6°C° 0 mm 1 mps 751 mmHg 96%
    03:00 +6°C° 0 mm 1 mps 752 mmHg 96%
    04:00 +6°C° 0 mm 1 mps 752 mmHg 96%
    05:00 +6°C° 0 mm 1 mps 752 mmHg 96%
    06:00 +5°C° 0 mm 1 mps 752 mmHg 96%
    07:00 +5°C° 0 mm 1 mps 753 mmHg 97%
    08:00 +7°C° 0 mm 1 mps 753 mmHg 95%
    09:00 +8°C° 0 mm 1 mps 754 mmHg 92%
    10:00 +9°C° 0 mm 2 mps 754 mmHg 90%
    11:00 +9°C° 0 mm 2 mps 754 mmHg 89%
    12:00 +10°C° 0 mm 2 mps 754 mmHg 88%
    13:00 +10°C° 0 mm 3 mps 753 mmHg 86%
    14:00 +10°C° 0 mm 2 mps 753 mmHg 86%
    15:00 +10°C° 0 mm 2 mps 753 mmHg 86%
    16:00 +11°C° 0 mm 1 mps 753 mmHg 87%
    17:00 +10°C° 0 mm 1 mps 753 mmHg 89%
    18:00 +9°C° 0 mm 1 mps 753 mmHg 92%
    19:00 +7°C° 0 mm 2 mps 754 mmHg 94%
    20:00 +7°C° 0 mm 2 mps 754 mmHg 95%
    21:00 +7°C° 0 mm 2 mps 754 mmHg 95%
    22:00 +7°C° 0 mm 2 mps 754 mmHg 95%
    23:00 +7°C° 0 mm 2 mps 754 mmHg 95%

    Day after tomorrow, 25 July, Tuesday

    Time Temperature Precipitation Wind Pressure Humidity
    00:00 +7°C° 0 mm 2 mps 754 mmHg 95%
    01:00 +7°C° 0 mm 2 mps 754 mmHg 95%
    02:00 +7°C° 0 mm 2 mps 753 mmHg 95%
    03:00 +6°C° 0 mm 2 mps 753 mmHg 95%
    04:00 +6°C° 0 mm 2 mps 753 mmHg 95%
    05:00 +6°C° 0 mm 2 mps 753 mmHg 95%
    06:00 +5°C° 0 mm 2 mps 753 mmHg 95%
    07:00 +5°C° 0 mm 2 mps 753 mmHg 94%
    08:00 +5°C° 0 mm 3 mps 753 mmHg 91%
    09:00 +8°C° 0 mm 3 mps 753 mmHg 87%
    10:00 +8°C° 0 mm 4 mps 753 mmHg 83%
    11:00 +10°C° 0 mm 4 mps 752 mmHg 80%
    12:00 +11°C° 0 mm 4 mps 752 mmHg 77%
    13:00 +12°C° 0 mm 4 mps 751 mmHg 74%
    14:00 +13°C° 0 mm 4 mps 750 mmHg 72%
    15:00 +14°C° 0 mm 3 mps 750 mmHg 71%
    16:00 +16°C° 0 mm 3 mps 749 mmHg 69%
    17:00 +14°C° 0 mm 3 mps 749 mmHg 73%
    18:00 +12°C° 0 mm 3 mps 749 mmHg 77%
    19:00 +10°C° 0 mm 2 mps 749 mmHg 81%
    20:00 +10°C° 0.1 mm 2 mps 749 mmHg 83%
    21:00 +10°C° 0.1 mm 3 mps 750 mmHg 85%
    22:00 +9°C° 0.1 mm 3 mps 750 mmHg 87%
    23:00 +9°C° 0 mm 3 mps 750 mmHg 89%

    26 July, Wednesday

    Time Temperature Precipitation Wind Pressure Humidity
    00:00 +9°C° 0 mm 3 mps 750 mmHg 92%
    01:00 +8°C° 0 mm 3 mps 749 mmHg 94%
    02:00 +8°C° 0 mm 3 mps 749 mmHg 95%
    03:00 +8°C° 0 mm 2 mps 749 mmHg 96%
    04:00 +7°C° 0 mm 2 mps 749 mmHg 96%
    05:00 +7°C° 0 mm 2 mps 750 mmHg 97%
    06:00 +7°C° 0 mm 2 mps 750 mmHg 97%
    07:00 +7°C° 0 mm 2 mps 751 mmHg 97%
    08:00 +8°C° 0 mm 3 mps 751 mmHg 94%
    09:00 +8°C° 0 mm 4 mps 751 mmHg 90%
    10:00 +9°C° 0 mm 5 mps 752 mmHg 86%
    11:00 +10°C° 0.1 mm 5 mps 752 mmHg 83%
    12:00 +10°C° 0.1 mm 5 mps 752 mmHg 81%
    13:00 +11°C° 0.1 mm 6 mps 752 mmHg 78%
    14:00 +12°C° 0.1 mm 5 mps 752 mmHg 77%
    15:00 +12°C° 0.1 mm 5 mps 752 mmHg 75%
    16:00 +13°C° 0.1 mm 5 mps 752 mmHg 74%
    17:00 +11°C° 0 mm 4 mps 753 mmHg 79%
    18:00 +9°C° 0 mm 3 mps 753 mmHg 84%
    19:00 +8°C° 0 mm 2 mps 754 mmHg 89%
    20:00 +7°C° 0 mm 2 mps 754 mmHg 90%
    21:00 +6°C° 0 mm 2 mps 755 mmHg 90%
    22:00 +6°C° 0 mm 2 mps 755 mmHg 91%
    23:00 +5°C° 0 mm 2 mps 755 mmHg 91%

    27 July, Thursday

    Time Temperature Precipitation Wind Pressure Humidity
    00:00 +6°C° 0 mm 1 mps 755 mmHg 91%
    01:00 +5°C° 0 mm 1 mps 755 mmHg 91%
    02:00 +5°C° 0 mm 1 mps 755 mmHg 91%
    03:00 +5°C° 0 mm 1 mps 755 mmHg 91%
    04:00 +4°C° 0 mm 1 mps 755 mmHg 91%
    05:00 +4°C° 0 mm 1 mps 755 mmHg 91%
    06:00 +4°C° 0 mm 1 mps 755 mmHg 91%
    07:00 +4°C° 0 mm 1 mps 755 mmHg 91%
    08:00 +6°C° 0 mm 1 mps 756 mmHg 86%
    09:00 +7°C° 0 mm 1 mps 756 mmHg 81%
    10:00 +9°C° 0 mm 1 mps 756 mmHg 76%
    11:00 +10°C° 0 mm 2 mps 756 mmHg 72%
    12:00 +12°C° 0 mm 2 mps 755 mmHg 68%
    13:00 +12°C° 0 mm 3 mps 754 mmHg 64%
    14:00 +12°C° 0 mm 3 mps 754 mmHg 67%
    15:00 +12°C° 0 mm 3 mps 753 mmHg 70%
    16:00 +12°C° 0 mm 3 mps 752 mmHg 73%
    17:00 +11°C° 0 mm 3 mps 752 mmHg 77%
    18:00 +10°C° 0 mm 3 mps 752 mmHg 81%
    19:00 +8°C° 0 mm 3 mps 752 mmHg 85%
    20:00 +7°C° 0.4 mm 4 mps 752 mmHg 87%
    21:00 +7°C° 0.4 mm 4 mps 752 mmHg 89%
    22:00 +7°C° 0.4 mm 4 mps 751 mmHg 91%
    23:00 +7°C° 0.5 mm 4 mps 751 mmHg 92%

    28 July, Friday

    Time Temperature Precipitation Wind Pressure Humidity
    00:00 +7°C° 0.5 mm 5 mps 750 mmHg 92%
    01:00 +7°C° 0.5 mm 5 mps 749 mmHg 93%
    02:00 +7°C° 0 mm 4 mps 749 mmHg 93%
    03:00 +7°C° 0 mm 3 mps 749 mmHg 93%
    04:00 +7°C° 0 mm 3 mps 749 mmHg 94%
    05:00 +6°C° 0 mm 2 mps 749 mmHg 94%
    06:00 +7°C° 0 mm 1 mps 750 mmHg 95%
    07:00 +6°C° 0 mm 1 mps 751 mmHg 95%
    08:00 +8°C° 0 mm 1 mps 751 mmHg 92%
    09:00 +9°C° 0 mm 1 mps 752 mmHg 89%
    10:00 +11°C° 0 mm 1 mps 752 mmHg 86%
    11:00 +12°C° 0 mm 2 mps 752 mmHg 79%
    12:00 +13°C° 0 mm 2 mps 752 mmHg 72%
    13:00 +14°C° 0 mm 2 mps 751 mmHg 64%
    14:00 +14°C° 0 mm 2 mps 751 mmHg 65%
    15:00 +14°C° 0 mm 1 mps 751 mmHg 66%
    16:00 +14°C° 0 mm 1 mps 751 mmHg 67%
    17:00 +13°C° 0 mm 1 mps 751 mmHg 71%
    18:00 +11°C° 0 mm 1 mps 752 mmHg 76%
    19:00 +9°C° 0 mm 1 mps 752 mmHg 80%
    20:00 +8°C° 0 mm 2 mps 752 mmHg 81%
    21:00 +7°C° 0 mm 2 mps 752 mmHg 83%
    22:00 +7°C° 0 mm 2 mps 752 mmHg 84%
    23:00 +7°C° 0 mm 3 mps 752 mmHg 85%
    Show more